This is the latest recevied weather packets stored in our database for station/object KO6LQJ. If no packets are shown the sender has not sent any weather packets the latest 1 day(s).
| Time | Temp. | Humidity | Pressure | Rain* | Wind** | Luminosity | Snow |
|---|---|---|---|---|---|---|---|
| 1778052056 | 12.78° C | 69% | 1019.6 hPa | 0 mm | 0 m/s | 0 W/m² | - |
| 1778051754 | 13.33° C | 67% | 1019.5 hPa | 0 mm | 0 m/s | 0 W/m² | - |
| 1778051451 | 13.33° C | 66% | 1019.3 hPa | 0 mm | 0 m/s | 0 W/m² | - |
| 1778051148 | 13.89° C | 66% | 1019.2 hPa | 0 mm | 0 m/s | 0 W/m² | - |
| 1778050845 | 13.89° C | 67% | 1019.4 hPa | 0 mm | 0 m/s | 0 W/m² | - |
| 1778050543 | 13.89° C | 67% | 1019.2 hPa | 0 mm | 0 m/s | 0 W/m² | - |
| 1778050239 | 13.89° C | 67% | 1019 hPa | 0 mm | 0 m/s | 0 W/m² | - |
| 1778049936 | 13.33° C | 68% | 1019.1 hPa | 0 mm | 0 m/s | 0 W/m² | - |
| 1778049642 | 13.33° C | 69% | 1019.1 hPa | 0 mm | 0 m/s | 0 W/m² | - |
| 1778049330 | 13.33° C | 69% | 1019.1 hPa | 0 mm | 0 m/s | 0 W/m² | - |
| 1778049027 | 13.33° C | 69% | 1019 hPa | 0 mm | 0.45 m/s, 99° | 0 W/m² | - |
| 1778048725 | 12.78° C | 70% | 1019 hPa | 0 mm | 0 m/s | 0 W/m² | - |
| 1778048422 | 12.78° C | 70% | 1019 hPa | 0 mm | 0 m/s | 0 W/m² | - |
| 1778048118 | 12.78° C | 69% | 1018.8 hPa | 0 mm | 0 m/s | 0 W/m² | - |
| 1778047816 | 13.33° C | 69% | 1018.9 hPa | 0 mm | 0 m/s | 0 W/m² | - |
| 1778047514 | 13.33° C | 68% | 1018.9 hPa | 0 mm | 0 m/s | 0 W/m² | - |
| 1778047211 | 13.33° C | 68% | 1019 hPa | 0 mm | 0 m/s | 0 W/m² | - |
| 1778046908 | 13.89° C | 68% | 1018.9 hPa | 0 mm | 0 m/s | 0 W/m² | - |
| 1778046604 | 13.89° C | 67% | 1018.8 hPa | 0 mm | 0 m/s | 0 W/m² | - |
| 1778046302 | 13.89° C | 67% | 1018.9 hPa | 0 mm | 0 m/s | 0 W/m² | - |
| 1778045997 | 13.89° C | 67% | 1018.9 hPa | 0 mm | 0.45 m/s, 97° | 0 W/m² | - |
| 1778045696 | 14.44° C | 66% | 1018.7 hPa | 0 mm | 0 m/s | 0 W/m² | - |
| 1778045394 | 14.44° C | 66% | 1018.8 hPa | 0 mm | 0 m/s | 0 W/m² | - |
| 1778045093 | 14.44° C | 66% | 1018.7 hPa | 0 mm | 0 m/s | 0 W/m² | - |
| 1778044789 | 13.89° C | 66% | 1018.8 hPa | 0 mm | 0.45 m/s, 95° | 0 W/m² | - |
* Rain latest hour (hover to see other rain measurements)
** Current wind speed in m/s (hover to see current wind gust speed)